| time (UTC) | temp F | wind direction | speed MPH | gust MPH | rain 1hr in | rain 24hr in | rain mn in | humidity % | barometer mb |
| 20260508090909 | 54 | 86 | 0.0 | 0.0 | 0.00 | 0.05 | 0.05 | 95 | 1009.7 |
| 20260508085409 | 53 | 86 | 0.0 | 1.0 | 0.00 | 0.05 | 0.05 | 95 | 1009.7 |
| 20260508084909 | 53 | 86 | 0.0 | 0.0 | 0.00 | 0.05 | 0.05 | 95 | 1009.7 |
| 20260508084409 | 52 | 86 | 0.0 | 0.0 | 0.00 | 0.05 | 0.05 | 97 | 1009.7 |
| 20260508083909 | 52 | 86 | 1.0 | 2.0 | 0.00 | 0.05 | 0.05 | 98 | 1009.6 |
| 20260508083409 | 52 | 86 | 1.0 | 3.0 | 0.00 | 0.05 | 0.05 | 98 | 1009.6 |
| 20260508082911 | 51 | 86 | 1.0 | 5.0 | 0.00 | 0.05 | 0.05 | 99 | 1009.7 |
| 20260508082409 | 51 | 87 | 1.0 | 3.0 | 0.00 | 0.05 | 0.05 | 99 | 1009.7 |
| 20260508081409 | 51 | 87 | 0.0 | 1.0 | 0.00 | 0.05 | 0.05 | 99 | 1009.6 |
| 20260508080909 | 50 | 87 | 0.0 | 0.0 | 0.00 | 0.05 | 0.05 | 99 | 1009.6 |
| 20260508080409 | 50 | 87 | 0.0 | 2.0 | 0.00 | 0.05 | 0.05 | 99 | 1009.5 |
| 20260508075910 | 50 | 87 | 1.0 | 2.0 | 0.01 | 0.05 | 0.05 | 99 | 1009.6 |
| 20260508075409 | 50 | 87 | 1.0 | 3.0 | 0.01 | 0.05 | 0.05 | 99 | 1009.6 |
| 20260508074910 | 49 | 87 | 1.0 | 3.0 | 0.02 | 0.05 | 0.05 | 99 | 1009.5 |
| 20260508074410 | 49 | 86 | 0.0 | 0.0 | 0.03 | 0.05 | 0.05 | 99 | 1009.5 |
| 20260508073909 | 49 | 86 | 0.0 | 2.0 | 0.04 | 0.05 | 0.05 | 99 | 1009.3 |
| 20260508073410 | 49 | 86 | 1.0 | 3.0 | 0.05 | 0.05 | 0.05 | 99 | 1009.3 |
| 20260508072911 | 49 | 11 | 0.0 | 5.0 | 0.05 | 0.05 | 0.05 | 99 | 1009.2 |
| 20260508072409 | 49 | 5 | 3.0 | 7.0 | 0.05 | 0.05 | 0.05 | 99 | 1009.2 |
| 20260508071909 | 49 | 334 | 3.0 | 10.0 | 0.05 | 0.05 | 0.05 | 99 | 1009.2 |
| 20260508071409 | 49 | 37 | 6.0 | 8.0 | 0.05 | 0.05 | 0.05 | 99 | 1008.9 |
| 20260508070910 | 49 | 47 | 2.0 | 5.0 | 0.05 | 0.05 | 0.05 | 98 | 1008.9 |
| 20260508070409 | 49 | 51 | 3.0 | 7.0 | 0.05 | 0.05 | 0.05 | 98 | 1009.0 |
| 20260508065910 | 49 | 52 | 2.0 | 5.0 | 0.04 | 0.04 | 0.04 | 98 | 1009.1 |
| 20260508065409 | 49 | 276 | 1.0 | 2.0 | 0.04 | 0.04 | 0.04 | 98 | 1009.3 |
| 20260508064909 | 49 | 276 | 1.0 | 2.0 | 0.03 | 0.03 | 0.03 | 98 | 1009.7 |
| 20260508063910 | 48 | 276 | 0.0 | 2.0 | 0.01 | 0.01 | 0.01 | 98 | 1009.7 |
| 20260508063409 | 48 | 276 | 1.0 | 3.0 | 0.00 | 0.00 | 0.00 | 98 | 1009.6 |
| 20260508062910 | 48 | 276 | 0.0 | 0.0 | 0.00 | 0.00 | 0.00 | 98 | 1009.5 |
| 20260508062409 | 48 | 276 | 0.0 | 0.0 | 0.00 | 0.00 | 0.00 | 98 | 1009.4 |
| 20260508061909 | 48 | 276 | 0.0 | 0.0 | 0.00 | 0.00 | 0.00 | 98 | 1009.4 |
| 20260508060909 | 48 | 276 | 0.0 | 1.0 | 0.00 | 0.00 | 0.00 | 98 | 1009.3 |
| 20260508060409 | 48 | 276 | 1.0 | 3.0 | 0.00 | 0.00 | 0.00 | 98 | 1009.2 |
| 20260508055910 | 48 | 276 | 0.0 | 3.0 | 0.00 | 0.00 | 0.00 | 98 | 1009.2 |
| 20260508055410 | 48 | 276 | 3.0 | 3.0 | 0.00 | 0.00 | 0.00 | 98 | 1009.0 |
| 20260508054910 | 48 | 276 | 0.0 | 0.0 | 0.00 | 0.00 | 0.00 | 98 | 1009.3 |
| 20260508054410 | 48 | 276 | 0.0 | 0.0 | 0.00 | 0.00 | 0.00 | 97 | 1009.1 |
| 20260508053409 | 48 | 276 | 0.0 | 2.0 | 0.00 | 0.00 | 0.00 | 98 | 1009.0 |
| 20260508052910 | 48 | 276 | 0.0 | 3.0 | 0.00 | 0.00 | 0.00 | 98 | 1009.0 |
| 20260508052410 | 48 | 276 | 0.0 | 2.0 | 0.00 | 0.00 | 0.00 | 97 | 1008.8 |
| 20260508051909 | 48 | 276 | 1.0 | 3.0 | 0.00 | 0.00 | 0.00 | 97 | 1008.8 |
| 20260508051409 | 48 | 276 | 3.0 | 5.0 | 0.00 | 0.00 | 0.00 | 97 | 1008.8 |
| 20260508050909 | 48 | 276 | 2.0 | 5.0 | 0.00 | 0.00 | 0.00 | 97 | 1008.8 |
| 20260508050410 | 48 | 276 | 5.0 | 6.0 | 0.00 | 0.00 | 0.00 | 97 | 1008.9 |
| 20260508045910 | 48 | 276 | 5.0 | 6.0 | 0.00 | 0.00 | 0.00 | 97 | 1008.8 |
| 20260508045409 | 48 | 276 | 5.0 | 6.0 | 0.00 | 0.00 | 0.00 | 97 | 1008.6 |
| 20260508044910 | 48 | 276 | 3.0 | 3.0 | 0.00 | 0.00 | 0.00 | 97 | 1008.4 |
| 20260508044410 | 48 | 276 | 1.0 | 5.0 | 0.00 | 0.00 | 0.00 | 97 | 1008.5 |
| 20260508043410 | 48 | 276 | 4.0 | 5.0 | 0.00 | 0.00 | 0.00 | 97 | 1008.5 |
| 20260508042910 | 48 | 276 | 5.0 | 5.0 | 0.00 | 0.00 | 0.00 | 97 | 1008.6 |
| 20260508042409 | 48 | 276 | 3.0 | 5.0 | 0.00 | 0.00 | 0.00 | 97 | 1008.6 |
| 20260508040909 | 48 | 277 | 6.0 | 6.0 | 0.00 | 0.00 | 0.00 | 97 | 1008.5 |
| 20260508040409 | 48 | 38 | 5.0 | 5.0 | 0.00 | 0.00 | 0.00 | 97 | 1008.6 |
| 20260508035911 | 48 | 38 | 4.0 | 5.0 | 0.00 | 0.00 | 0.00 | 97 | 1008.8 |
| 20260508035409 | 48 | 38 | 0.0 | 2.0 | 0.00 | 0.00 | 0.00 | 97 | 1008.8 |
| 20260508034909 | 48 | 38 | 0.0 | 0.0 | 0.00 | 0.00 | 0.00 | 97 | 1008.8 |
| 20260508034409 | 48 | 38 | 0.0 | 1.0 | 0.00 | 0.00 | 0.00 | 97 | 1008.8 |
| 20260508033910 | 48 | 38 | 1.0 | 2.0 | 0.00 | 0.00 | 0.00 | 97 | 1008.7 |
| 20260508032911 | 48 | 38 | 2.0 | 3.0 | 0.00 | 0.00 | 0.00 | 97 | 1008.9 |
| 20260508031909 | 48 | 38 | 0.0 | 2.0 | 0.00 | 0.00 | 0.00 | 96 | 1008.9 |
| 20260508031410 | 48 | 38 | 0.0 | 0.0 | 0.00 | 0.00 | 0.00 | 96 | 1009.0 |
| 20260508030909 | 48 | 38 | 0.0 | 0.0 | 0.00 | 0.00 | 0.00 | 97 | 1009.1 |
| 20260508030410 | 48 | 38 | 0.0 | 0.0 | 0.00 | 0.00 | 0.00 | 97 | 1009.1 |
| 20260508025910 | 48 | 38 | 0.0 | 2.0 | 0.00 | 0.00 | 0.00 | 97 | 1009.0 |
| 20260508025410 | 48 | 38 | 1.0 | 2.0 | 0.00 | 0.00 | 0.00 | 97 | 1009.0 |
| 20260508024909 | 48 | 38 | 1.0 | 2.0 | 0.00 | 0.00 | 0.00 | 96 | 1009.0 |
| 20260508024409 | 49 | 38 | 0.0 | 3.0 | 0.00 | 0.00 | 0.00 | 97 | 1009.2 |
| 20260508023909 | 49 | 38 | 1.0 | 2.0 | 0.00 | 0.00 | 0.00 | 97 | 1009.2 |
| 20260508023409 | 49 | 38 | 2.0 | 3.0 | 0.00 | 0.00 | 0.00 | 96 | 1009.2 |
| 20260508022409 | 48 | 38 | 1.0 | 3.0 | 0.00 | 0.00 | 0.00 | 96 | 1009.4 |
| 20260508021910 | 48 | 38 | 2.0 | 5.0 | 0.00 | 0.00 | 0.00 | 96 | 1009.3 |
| 20260508021409 | 48 | 38 | 1.0 | 3.0 | 0.00 | 0.00 | 0.00 | 96 | 1009.4 |
| 20260508020909 | 48 | 38 | 0.0 | 1.0 | 0.00 | 0.00 | 0.00 | 96 | 1009.5 |
| 20260508020409 | 48 | 38 | 1.0 | 2.0 | 0.00 | 0.00 | 0.00 | 96 | 1009.6 |
| 20260508015911 | 48 | 38 | 0.0 | 0.0 | 0.00 | 0.00 | 0.00 | 96 | 1009.6 |
| 20260508015410 | 48 | 38 | 0.0 | 0.0 | 0.00 | 0.00 | 0.00 | 96 | 1009.6 |
| 20260508014910 | 48 | 38 | 0.0 | 0.0 | 0.00 | 0.00 | 0.00 | 96 | 1009.6 |
| 20260508014409 | 48 | 38 | 0.0 | 0.0 | 0.00 | 0.00 | 0.00 | 96 | 1009.8 |
| 20260508013909 | 48 | 38 | 0.0 | 0.0 | 0.00 | 0.00 | 0.00 | 95 | 1009.6 |
| 20260508013410 | 48 | 38 | 0.0 | 0.0 | 0.00 | 0.00 | 0.00 | 95 | 1009.7 |
| 20260508012409 | 48 | 38 | 0.0 | 0.0 | 0.00 | 0.00 | 0.00 | 95 | 1009.9 |
| 20260508011910 | 48 | 38 | 0.0 | 1.0 | 0.00 | 0.00 | 0.00 | 95 | 1009.9 |
| 20260508011409 | 48 | 38 | 0.0 | 2.0 | 0.00 | 0.00 | 0.00 | 95 | 1009.9 |
| 20260508005910 | 48 | 38 | 0.0 | 0.0 | 0.00 | 0.00 | 0.00 | 94 | 1010.0 |
| 20260508005409 | 48 | 38 | 0.0 | 0.0 | 0.00 | 0.00 | 0.00 | 94 | 1010.1 |
| 20260508004910 | 48 | 38 | 0.0 | 0.0 | 0.00 | 0.00 | 0.00 | 94 | 1010.1 |
| 20260508004409 | 49 | 38 | 0.0 | 0.0 | 0.00 | 0.00 | 0.00 | 94 | 1010.2 |
| 20260508003910 | 49 | 38 | 0.0 | 0.0 | 0.00 | 0.00 | 0.00 | 94 | 1010.3 |
| 20260508003409 | 49 | 38 | 0.0 | 0.0 | 0.00 | 0.00 | 0.00 | 94 | 1010.4 |
| 20260508002910 | 49 | 38 | 0.0 | 0.0 | 0.00 | 0.00 | 0.00 | 93 | 1010.4 |
| 20260508002410 | 49 | 38 | 0.0 | 0.0 | 0.00 | 0.00 | 0.00 | 93 | 1010.5 |
| 20260508001410 | 49 | 38 | 0.0 | 0.0 | 0.00 | 0.00 | 0.00 | 93 | 1010.5 |
| 20260508000910 | 49 | 38 | 0.0 | 0.0 | 0.00 | 0.00 | 0.00 | 93 | 1010.6 |
| 20260508000409 | 49 | 38 | 0.0 | 1.0 | 0.00 | 0.00 | 0.00 | 94 | 1010.6 |
| 20260507235911 | 49 | 38 | 0.0 | 1.0 | 0.00 | 0.00 | 0.00 | 94 | 1010.6 |
| 20260507235409 | 49 | 38 | 0.0 | 2.0 | 0.00 | 0.00 | 0.00 | 93 | 1010.6 |
| 20260507234910 | 50 | 38 | 2.0 | 3.0 | 0.00 | 0.00 | 0.00 | 93 | 1010.7 |
| 20260507234409 | 50 | 38 | 1.0 | 5.0 | 0.00 | 0.00 | 0.00 | 93 | 1010.8 |
| 20260507233909 | 50 | 37 | 1.0 | 5.0 | 0.00 | 0.00 | 0.00 | 92 | 1010.8 |
| 20260507233409 | 50 | 284 | 0.0 | 2.0 | 0.00 | 0.00 | 0.00 | 92 | 1010.9 |
| 20260507232910 | 50 | 284 | 1.0 | 2.0 | 0.00 | 0.00 | 0.00 | 92 | 1010.8 |
| 20260507232409 | 50 | 284 | 1.0 | 2.0 | 0.00 | 0.00 | 0.00 | 92 | 1010.9 |
| 20260507231909 | 50 | 284 | 0.0 | 2.0 | 0.00 | 0.00 | 0.00 | 92 | 1010.9 |
| 20260507231409 | 50 | 284 | 1.0 | 2.0 | 0.00 | 0.00 | 0.00 | 92 | 1010.9 |
| 20260507230909 | 50 | 284 | 1.0 | 2.0 | 0.00 | 0.00 | 0.00 | 92 | 1010.9 |
| 20260507230410 | 50 | 284 | 1.0 | 3.0 | 0.00 | 0.00 | 0.00 | 92 | 1010.9 |
| 20260507225910 | 50 | 284 | 2.0 | 5.0 | 0.00 | 0.00 | 0.00 | 92 | 1011.0 |
| 20260507225409 | 51 | 284 | 0.0 | 3.0 | 0.00 | 0.00 | 0.00 | 92 | 1010.9 |
| 20260507224909 | 51 | 283 | 0.0 | 1.0 | 0.00 | 0.00 | 0.00 | 92 | 1011.0 |
| 20260507224410 | 51 | 283 | 0.0 | 0.0 | 0.00 | 0.00 | 0.00 | 92 | 1011.1 |
| 20260507223910 | 51 | 283 | 0.0 | 0.0 | 0.00 | 0.00 | 0.00 | 92 | 1011.2 |
| 20260507223409 | 51 | 283 | 0.0 | 0.0 | 0.00 | 0.00 | 0.00 | 91 | 1011.2 |
| 20260507222911 | 51 | 283 | 0.0 | 0.0 | 0.00 | 0.00 | 0.00 | 91 | 1011.3 |
| 20260507222409 | 51 | 283 | 0.0 | 0.0 | 0.00 | 0.00 | 0.00 | 91 | 1011.3 |
| 20260507221909 | 51 | 283 | 0.0 | 0.0 | 0.00 | 0.00 | 0.00 | 91 | 1011.3 |
| 20260507221409 | 52 | 283 | 0.0 | 0.0 | 0.00 | 0.00 | 0.00 | 91 | 1011.4 |
| 20260507220909 | 52 | 283 | 0.0 | 2.0 | 0.00 | 0.00 | 0.00 | 91 | 1011.4 |
| 20260507220409 | 52 | 283 | 1.0 | 3.0 | 0.00 | 0.00 | 0.00 | 91 | 1011.4 |
| 20260507215910 | 52 | 283 | 2.0 | 3.0 | 0.00 | 0.00 | 0.00 | 91 | 1011.5 |
| 20260507215409 | 52 | 283 | 2.0 | 5.0 | 0.00 | 0.00 | 0.00 | 90 | 1011.5 |
| 20260507213909 | 52 | 284 | 3.0 | 7.0 | 0.00 | 0.00 | 0.00 | 89 | 1011.5 |
| 20260507213409 | 52 | 239 | 0.0 | 2.0 | 0.00 | 0.00 | 0.00 | 89 | 1011.5 |
| 20260507212410 | 53 | 239 | 0.0 | 0.0 | 0.00 | 0.00 | 0.00 | 88 | 1011.6 |
| 20260507211909 | 53 | 239 | 0.0 | 3.0 | 0.00 | 0.00 | 0.00 | 87 | 1011.6 |
| 20260507211410 | 53 | 239 | 5.0 | 7.0 | 0.00 | 0.00 | 0.00 | 87 | 1011.5 |
| 20260507210909 | 53 | 239 | 5.0 | 8.0 | 0.00 | 0.00 | 0.00 | 87 | 1011.4 |
| 20260507210409 | 53 | 238 | 5.0 | 8.0 | 0.00 | 0.00 | 0.00 | 86 | 1011.4 |
| 20260507205910 | 53 | 246 | 6.0 | 9.0 | 0.00 | 0.00 | 0.00 | 86 | 1011.3 |
| 20260507204909 | 54 | 240 | 3.0 | 7.0 | 0.00 | 0.00 | 0.00 | 85 | 1011.3 |
| 20260507204409 | 54 | 242 | 6.0 | 9.0 | 0.00 | 0.00 | 0.00 | 85 | 1011.1 |
| 20260507203910 | 54 | 242 | 6.0 | 9.0 | 0.00 | 0.00 | 0.00 | 84 | 1011.1 |
| 20260507203409 | 54 | 235 | 5.0 | 8.0 | 0.00 | 0.00 | 0.00 | 83 | 1011.0 |
| 20260507202910 | 55 | 254 | 5.0 | 7.0 | 0.00 | 0.00 | 0.00 | 83 | 1011.0 |
| 20260507201910 | 55 | 256 | 3.0 | 7.0 | 0.00 | 0.00 | 0.00 | 81 | 1010.8 |
| 20260507201410 | 55 | 237 | 7.0 | 9.0 | 0.00 | 0.00 | 0.00 | 81 | 1010.7 |
| 20260507200910 | 55 | 238 | 7.0 | 10.0 | 0.00 | 0.00 | 0.00 | 79 | 1010.6 |
| 20260507200409 | 56 | 201 | 6.0 | 9.0 | 0.00 | 0.00 | 0.00 | 79 | 1010.5 |
| 20260507195910 | 56 | 219 | 5.0 | 7.0 | 0.00 | 0.00 | 0.00 | 78 | 1010.5 |
| 20260507195409 | 56 | 236 | 4.0 | 6.0 | 0.00 | 0.00 | 0.00 | 78 | 1010.4 |
| 20260507193909 | 57 | 248 | 5.0 | 8.0 | 0.00 | 0.00 | 0.00 | 76 | 1010.2 |
| 20260507193409 | 57 | 237 | 5.0 | 9.0 | 0.00 | 0.00 | 0.00 | 75 | 1010.1 |
| 20260507192910 | 58 | 230 | 6.0 | 10.0 | 0.00 | 0.00 | 0.00 | 74 | 1010.0 |
| 20260507192410 | 58 | 223 | 5.0 | 6.0 | 0.00 | 0.00 | 0.00 | 74 | 1009.9 |
| 20260507191910 | 58 | 223 | 6.0 | 9.0 | 0.00 | 0.00 | 0.00 | 74 | 1009.9 |
| 20260507191409 | 59 | 243 | 6.0 | 9.0 | 0.00 | 0.00 | 0.00 | 74 | 1009.9 |
| 20260507190909 | 59 | 245 | 6.0 | 9.0 | 0.00 | 0.00 | 0.00 | 73 | 1009.8 |
| 20260507190410 | 59 | 237 | 7.0 | 10.0 | 0.00 | 0.00 | 0.00 | 73 | 1009.8 |
| 20260507185410 | 59 | 245 | 6.0 | 10.0 | 0.00 | 0.00 | 0.00 | 72 | 1009.8 |
| 20260507184909 | 60 | 248 | 7.0 | 12.0 | 0.00 | 0.00 | 0.00 | 72 | 1009.8 |
| 20260507184410 | 60 | 231 | 9.0 | 13.0 | 0.00 | 0.00 | 0.00 | 73 | 1009.8 |
| 20260507183910 | 60 | 238 | 6.0 | 10.0 | 0.00 | 0.00 | 0.00 | 73 | 1009.6 |
| 20260507183409 | 60 | 244 | 7.0 | 13.0 | 0.00 | 0.00 | 0.00 | 73 | 1009.6 |
| 20260507182910 | 60 | 238 | 7.0 | 14.0 | 0.00 | 0.00 | 0.00 | 73 | 1009.6 |
| 20260507182410 | 60 | 240 | 7.0 | 14.0 | 0.00 | 0.00 | 0.00 | 72 | 1009.6 |
| 20260507181909 | 60 | 245 | 9.0 | 13.0 | 0.00 | 0.00 | 0.00 | 72 | 1009.5 |
| 20260507181409 | 60 | 256 | 7.0 | 12.0 | 0.00 | 0.00 | 0.00 | 72 | 1009.6 |
| 20260507180909 | 60 | 230 | 7.0 | 10.0 | 0.00 | 0.00 | 0.00 | 73 | 1009.5 |
| 20260507180410 | 61 | 240 | 9.0 | 12.0 | 0.00 | 0.00 | 0.00 | 72 | 1009.4 |
| 20260507175910 | 61 | 241 | 8.0 | 13.0 | 0.00 | 0.00 | 0.00 | 72 | 1009.4 |
| 20260507175410 | 61 | 241 | 9.0 | 14.0 | 0.00 | 0.00 | 0.00 | 71 | 1009.3 |
| 20260507174910 | 61 | 250 | 10.0 | 20.0 | 0.00 | 0.00 | 0.00 | 71 | 1009.3 |
| 20260507174410 | 61 | 247 | 9.0 | 18.0 | 0.00 | 0.00 | 0.00 | 71 | 1009.3 |
| 20260507173909 | 62 | 238 | 8.0 | 15.0 | 0.00 | 0.00 | 0.00 | 71 | 1009.2 |
| 20260507173410 | 62 | 249 | 9.0 | 20.0 | 0.00 | 0.00 | 0.00 | 71 | 1009.3 |
| 20260507172910 | 62 | 248 | 13.0 | 21.0 | 0.00 | 0.00 | 0.00 | 71 | 1009.3 |
| 20260507172410 | 62 | 246 | 11.0 | 18.0 | 0.00 | 0.00 | 0.00 | 71 | 1009.3 |
| 20260507171910 | 63 | 239 | 12.0 | 20.0 | 0.00 | 0.00 | 0.00 | 70 | 1009.3 |
| 20260507171409 | 63 | 238 | 10.0 | 22.0 | 0.00 | 0.00 | 0.00 | 70 | 1009.3 |
| 20260507170409 | 63 | 248 | 12.0 | 18.0 | 0.00 | 0.00 | 0.00 | 71 | 1009.2 |
| 20260507165910 | 63 | 240 | 10.0 | 21.0 | 0.00 | 0.00 | 0.00 | 69 | 1009.2 |
| 20260507165409 | 64 | 248 | 10.0 | 22.0 | 0.00 | 0.00 | 0.00 | 69 | 1009.2 |
| 20260507163910 | 64 | 253 | 9.0 | 16.0 | 0.00 | 0.00 | 0.00 | 70 | 1009.0 |
| 20260507163409 | 65 | 242 | 9.0 | 15.0 | 0.00 | 0.00 | 0.00 | 69 | 1009.1 |
| 20260507162911 | 65 | 241 | 10.0 | 15.0 | 0.00 | 0.00 | 0.00 | 68 | 1009.0 |
| 20260507162409 | 66 | 242 | 8.0 | 16.0 | 0.00 | 0.00 | 0.00 | 67 | 1009.0 |
| 20260507161409 | 65 | 229 | 9.0 | 15.0 | 0.00 | 0.00 | 0.00 | 67 | 1009.0 |
| 20260507160910 | 65 | 222 | 9.0 | 16.0 | 0.00 | 0.00 | 0.00 | 69 | 1009.0 |
| 20260507160409 | 64 | 241 | 8.0 | 15.0 | 0.00 | 0.00 | 0.00 | 73 | 1008.9 |
| 20260507155911 | 63 | 233 | 8.0 | 13.0 | 0.00 | 0.00 | 0.00 | 69 | 1009.0 |
| 20260507155410 | 63 | 229 | 8.0 | 13.0 | 0.00 | 0.00 | 0.00 | 70 | 1009.0 |
| 20260507154910 | 64 | 240 | 9.0 | 13.0 | 0.00 | 0.00 | 0.00 | 67 | 1009.0 |
| 20260507154409 | 65 | 226 | 7.0 | 15.0 | 0.00 | 0.00 | 0.00 | 69 | 1009.0 |
| 20260507153910 | 64 | 249 | 8.0 | 13.0 | 0.00 | 0.00 | 0.00 | 69 | 1009.0 |
| 20260507152910 | 65 | 228 | 10.0 | 14.0 | 0.00 | 0.00 | 0.00 | 70 | 1009.0 |
| 20260507152410 | 65 | 239 | 10.0 | 14.0 | 0.00 | 0.00 | 0.00 | 69 | 1009.1 |
| 20260507150410 | 64 | 238 | 9.0 | 14.0 | 0.00 | 0.00 | 0.00 | 73 | 1009.2 |
| 20260507145410 | 63 | 246 | 8.0 | 15.0 | 0.00 | 0.00 | 0.00 | 75 | 1009.3 |
| 20260507144410 | 64 | 226 | 9.0 | 18.0 | 0.00 | 0.00 | 0.00 | 74 | 1009.3 |
| 20260507143410 | 65 | 236 | 10.0 | 15.0 | 0.00 | 0.00 | 0.00 | 74 | 1009.4 |
| 20260507142911 | 64 | 238 | 11.0 | 22.0 | 0.00 | 0.00 | 0.00 | 75 | 1009.4 |
| 20260507141909 | 64 | 233 | 12.0 | 18.0 | 0.00 | 0.00 | 0.00 | 76 | 1009.4 |
| 20260507141409 | 63 | 234 | 9.0 | 14.0 | 0.00 | 0.00 | 0.00 | 76 | 1009.3 |
| 20260507140909 | 63 | 239 | 10.0 | 21.0 | 0.00 | 0.00 | 0.00 | 76 | 1009.4 |
| 20260507140410 | 63 | 236 | 10.0 | 15.0 | 0.00 | 0.00 | 0.00 | 76 | 1009.5 |
| 20260507135911 | 64 | 239 | 9.0 | 18.0 | 0.00 | 0.00 | 0.00 | 75 | 1009.3 |
| 20260507134909 | 64 | 247 | 10.0 | 22.0 | 0.00 | 0.00 | 0.00 | 74 | 1009.3 |
| 20260507134409 | 65 | 265 | 9.0 | 16.0 | 0.00 | 0.00 | 0.00 | 74 | 1009.3 |
| 20260507133910 | 64 | 238 | 9.0 | 14.0 | 0.00 | 0.00 | 0.00 | 78 | 1009.3 |
| 20260507133410 | 63 | 244 | 7.0 | 12.0 | 0.00 | 0.00 | 0.00 | 76 | 1009.3 |
| 20260507132911 | 63 | 239 | 9.0 | 15.0 | 0.00 | 0.00 | 0.00 | 75 | 1009.4 |
| 20260507132410 | 63 | 239 | 9.0 | 20.0 | 0.00 | 0.00 | 0.00 | 75 | 1009.4 |
| 20260507131909 | 63 | 238 | 10.0 | 20.0 | 0.00 | 0.00 | 0.00 | 76 | 1009.3 |
| 20260507130910 | 63 | 256 | 8.0 | 13.0 | 0.00 | 0.00 | 0.00 | 74 | 1009.4 |
| 20260507130409 | 63 | 247 | 8.0 | 15.0 | 0.00 | 0.00 | 0.00 | 73 | 1009.4 |
| 20260507124910 | 64 | 241 | 9.0 | 20.0 | 0.00 | 0.00 | 0.00 | 73 | 1009.5 |
| 20260507124409 | 65 | 236 | 9.0 | 20.0 | 0.00 | 0.00 | 0.00 | 72 | 1009.4 |
| 20260507123910 | 66 | 237 | 10.0 | 18.0 | 0.00 | 0.00 | 0.00 | 70 | 1009.4 |
| 20260507123410 | 66 | 233 | 12.0 | 20.0 | 0.00 | 0.00 | 0.00 | 70 | 1009.5 |
| 20260507122911 | 65 | 243 | 10.0 | 20.0 | 0.00 | 0.00 | 0.00 | 72 | 1009.6 |
| 20260507122410 | 66 | 240 | 12.0 | 21.0 | 0.00 | 0.00 | 0.00 | 71 | 1009.6 |
| 20260507121910 | 67 | 235 | 9.0 | 16.0 | 0.00 | 0.00 | 0.00 | 70 | 1009.7 |
| 20260507121410 | 65 | 225 | 9.0 | 15.0 | 0.00 | 0.00 | 0.00 | 76 | 1009.7 |
| 20260507120909 | 64 | 237 | 9.0 | 15.0 | 0.00 | 0.00 | 0.00 | 74 | 1009.8 |
| 20260507120409 | 64 | 247 | 9.0 | 16.0 | 0.00 | 0.00 | 0.00 | 73 | 1009.7 |
| 20260507115910 | 65 | 248 | 8.0 | 15.0 | 0.00 | 0.00 | 0.00 | 71 | 1009.8 |
| 20260507114909 | 65 | 250 | 8.0 | 12.0 | 0.00 | 0.00 | 0.00 | 74 | 1009.8 |
| 20260507114409 | 63 | 246 | 9.0 | 16.0 | 0.00 | 0.00 | 0.00 | 72 | 1009.8 |
| 20260507113910 | 64 | 235 | 6.0 | 14.0 | 0.00 | 0.00 | 0.00 | 73 | 1009.9 |
| 20260507113409 | 65 | 252 | 9.0 | 15.0 | 0.00 | 0.00 | 0.00 | 70 | 1009.9 |
| 20260507112911 | 66 | 241 | 10.0 | 16.0 | 0.00 | 0.00 | 0.00 | 68 | 1009.8 |
| 20260507111910 | 63 | 246 | 7.0 | 12.0 | 0.00 | 0.00 | 0.00 | 70 | 1009.8 |
| 20260507111410 | 63 | 235 | 8.0 | 13.0 | 0.00 | 0.00 | 0.00 | 67 | 1009.9 |
| 20260507110910 | 64 | 235 | 10.0 | 18.0 | 0.00 | 0.00 | 0.00 | 64 | 1009.8 |
| 20260507105911 | 64 | 235 | 7.0 | 10.0 | 0.00 | 0.00 | 0.00 | 65 | 1009.9 |
| 20260507104410 | 65 | 224 | 7.0 | 12.0 | 0.00 | 0.00 | 0.00 | 67 | 1009.9 |
| 20260507103909 | 64 | 256 | 6.0 | 9.0 | 0.00 | 0.00 | 0.00 | 67 | 1009.9 |
| 20260507103410 | 64 | 69 | 1.0 | 3.0 | 0.00 | 0.00 | 0.00 | 68 | 1009.9 |
| 20260507102910 | 63 | 69 | 0.0 | 2.0 | 0.00 | 0.00 | 0.00 | 68 | 1009.9 |
| 20260507102409 | 63 | 69 | 0.0 | 1.0 | 0.00 | 0.00 | 0.00 | 69 | 1010.0 |
| 20260507101910 | 63 | 69 | 0.0 | 2.0 | 0.00 | 0.00 | 0.00 | 67 | 1010.0 |
| 20260507101410 | 62 | 69 | 0.0 | 0.0 | 0.00 | 0.00 | 0.00 | 70 | 1010.0 |
| 20260507100909 | 61 | 69 | 0.0 | 0.0 | 0.00 | 0.00 | 0.00 | 67 | 1010.0 |
| 20260507100410 | 62 | 69 | 0.0 | 2.0 | 0.00 | 0.00 | 0.00 | 66 | 1010.0 |
| 20260507095910 | 61 | 69 | 0.0 | 3.0 | 0.00 | 0.00 | 0.00 | 67 | 1010.0 |
| 20260507095410 | 61 | 69 | 1.0 | 3.0 | 0.00 | 0.00 | 0.00 | 67 | 1010.1 |
| 20260507094910 | 61 | 69 | 1.0 | 3.0 | 0.00 | 0.00 | 0.00 | 67 | 1010.1 |
| 20260507094409 | 62 | 69 | 1.0 | 5.0 | 0.00 | 0.00 | 0.00 | 66 | 1010.1 |
| 20260507093909 | 62 | 69 | 0.0 | 5.0 | 0.00 | 0.00 | 0.00 | 67 | 1010.1 |
| 20260507093410 | 62 | 69 | 0.0 | 5.0 | 0.00 | 0.00 | 0.00 | 68 | 1010.1 |
| 20260507092910 | 62 | 69 | 1.0 | 5.0 | 0.00 | 0.00 | 0.00 | 68 | 1010.1 |
| 20260507092410 | 61 | 69 | 3.0 | 6.0 | 0.00 | 0.00 | 0.00 | 70 | 1010.2 |
| 20260507091910 | 60 | 69 | 1.0 | 3.0 | 0.00 | 0.00 | 0.00 | 74 | 1010.3 |
| 20260507091409 | 60 | 69 | 1.0 | 3.0 | 0.00 | 0.00 | 0.00 | 72 | 1010.3 |